Torna al catalogo

COSMOS 2251 DEB

AttivoLEO
NORAD 34909·DEBRIS·🇷🇺 Russia

Lanciato Jun 16, 1993 da Plesetsk Cosmodrome

Loading…

Prossimi Passaggi (prossime 24 ore)

TLE

AggiornatoSource: Space-Track

Epoca: Sep 13, 2026, 17:02 UTC

1 34909U 93036ADE 26256.70977965  .00002378  00000-0  30537-3 0  9998
2 34909  74.0110 255.2014 0083353 319.0652  40.4283 14.79403220709163

Traccia COSMOS 2251 DEB in tempo reale con AllMySat

Download on the App Store